Location: Czekanka
(50.4925°N, 19.2643°E)
Time: 07:04:35
(UTC+00:00)

SL-16 R/B - Pass Details

Date: 26 September 2024
Orbit: 842 x 846 km, 71.0° (Epoch: 05 October)

Event Time Altitude Azimuth Distance (km) Brightness Sun altitude
Rises 00:41:56 0° 332° (NNW) 3,412 5.6 -33.9°
Reaches altitude 10° 00:44:46 10° 345° (NNW) 2,474 5.0 -33.6°
Maximum altitude 00:49:35 28° 43° (NE) 1,550 4.1 -33.1°
Drops below altitude 10° 00:54:23 10° 101° (E) 2,463 4.9 -32.6°
Sets 00:57:11 0° 113° (ESE) 3,394 5.6 -32.3°
